This is the latest recevied weather packets stored in our database for station/object W0DXV. If no packets are shown the sender has not sent any weather packets the latest 10 day(s).
| Time | Temp. | Humidity | Pressure | Rain* | Wind** | Luminosity | Snow |
|---|---|---|---|---|---|---|---|
| 1777610530 | 10.56° C | 69% | 1010.2 hPa | 0 mm | - | 0 W/m² | - |
| 1777610225 | 10.56° C | 72% | 1010.1 hPa | 0 mm | - | 0 W/m² | - |
| 1777609923 | 10.56° C | 79% | 1010.3 hPa | 0 mm | - | 0 W/m² | - |
| 1777609619 | 11.11° C | 78% | 1010.1 hPa | 0 mm | - | 0 W/m² | - |
| 1777609316 | 11.11° C | 73% | 1010.2 hPa | 0 mm | - | 0 W/m² | - |
| 1777609013 | 11.11° C | 63% | 1010.2 hPa | 0 mm | - | 0 W/m² | - |
| 1777608710 | 10° C | 68% | 1009.9 hPa | 0 mm | - | 0 W/m² | - |
| 1777608407 | 10.56° C | 78% | 1009.9 hPa | 0 mm | - | 0 W/m² | - |
| 1777608105 | 10.56° C | 80% | 1009.9 hPa | 0 mm | - | 0 W/m² | - |
| 1777607801 | 10.56° C | 79% | 1009.8 hPa | 0 mm | - | 0 W/m² | - |
| 1777607498 | 10.56° C | 79% | 1009.8 hPa | 0 mm | - | 0 W/m² | - |
| 1777607194 | 10.56° C | 74% | 1009.6 hPa | 0 mm | - | 0 W/m² | - |
| 1777606890 | 10.56° C | 77% | 1009.6 hPa | 0 mm | - | 0 W/m² | - |
| 1777606586 | 10.56° C | 77% | 1009.5 hPa | 0 mm | - | 0 W/m² | - |
| 1777606281 | 10.56° C | 75% | 1009.4 hPa | 0 mm | - | 0 W/m² | - |
| 1777605977 | 10.56° C | 74% | 1009.5 hPa | 0 mm | - | 0 W/m² | - |
| 1777605673 | 10.56° C | 72% | 1009.3 hPa | 0 mm | - | 0 W/m² | - |
| 1777605372 | 11.11° C | 74% | 1009.4 hPa | 0 mm | - | 0 W/m² | - |
| 1777605070 | 11.67° C | 74% | 1009.7 hPa | 0 mm | - | 0 W/m² | - |
| 1777604765 | 11.67° C | 72% | 1009.6 hPa | 0 mm | - | 0 W/m² | - |
| 1777604462 | 11.67° C | 69% | 1009.4 hPa | 0 mm | - | 0 W/m² | - |
| 1777604162 | 11.67° C | 68% | 1009.4 hPa | 0 mm | - | 0 W/m² | - |
| 1777603859 | 12.22° C | 67% | 1009.5 hPa | 0 mm | - | 0 W/m² | - |
| 1777603555 | 12.22° C | 71% | 1009.5 hPa | 0 mm | - | 0 W/m² | - |
| 1777603250 | 12.78° C | 72% | 1009.2 hPa | 0 mm | - | 0 W/m² | - |
* Rain latest hour (hover to see other rain measurements)
** Current wind speed in m/s (hover to see current wind gust speed)